Zurück zum Katalog

STARLINK-37557

AktivKommunikationSSO
NORAD 69231·PAYLOAD·🇺🇸 United States

Gestartet May 26, 2026 von Vandenberg Space Force Base

Loading…

Nächste Überflüge (nächste 24 Stunden)

TLE

AktuellSource: CelesTrak SupGP

Epoche: Sep 14, 2026, 23:02 UTC

1 69231C 26115W   26257.96020833  .00052419  00000+0  16273-2 0  2577
2 69231  97.2830 274.1966 0001129  97.1458 332.3524 15.33410795    15

Verfolge STARLINK-37557 in Echtzeit mit AllMySat

Download on the App Store